LMRST-SAT

Last updated on Mon Sep 21 2026 00:03:44 GMT+0000 (Coordinated Universal Time)

1 40971U 15058H 26263.49698261 .00000953 00000+0 95177-4 0 9993 2 40971 64.7762 339.1978 0140293 22.8918 337.8364 14.91000286127762
UTC large
Height (km)
Speed (km/s)
/
Latitude / Longitude
Inclination (degrees)
Orbital Period (minutes)
Azimuth
Elevation
Range (km)
Doppler Factor

Next 0 passes for location: London (51.5072 / 0.1276)

No passes found over London.
LMRST-SAT